Wetterdaten: Montag, 24.08.2015
Datum Zeit Temp. A. Feuchte A. Luftdruck Regen Wind Richtung Richtung Sonnenschein ET UV Solar Taupunkt Windchill Windben Empfang
24.08.2015 00:00 16,1 C 72 % 1008,9 hPa 0,0 l/m 0,0 km/h (0 Bft) O-NO 57 0 min 0,000 mm 0,0 UV-I 0 W/m 11,0 C 16,1 C 0,0 km/h (0 Bft) 0,00 %
24.08.2015 00:05 15,8 C 73 % 1008,8 hPa 0,0 l/m 0,0 km/h (0 Bft) O-NO 58 0 min 0,000 mm 0,0 UV-I 0 W/m 11,0 C 15,8 C 0,0 km/h (0 Bft) 0,00 %
24.08.2015 00:10 15,5 C 75 % 1008,9 hPa 0,0 l/m 0,0 km/h (0 Bft) O-NO 65 0 min 0,000 mm 0,0 UV-I 0 W/m 11,1 C 15,5 C 0,0 km/h (0 Bft) 0,00 %
24.08.2015 00:15 15,3 C 74 % 1008,9 hPa 0,0 l/m 0,0 km/h (0 Bft) O-NO 64 0 min 0,000 mm 0,0 UV-I 0 W/m 10,7 C 15,3 C 0,0 km/h (0 Bft) 0,00 %
24.08.2015 00:20 15,1 C 74 % 1008,7 hPa 0,0 l/m 0,4 km/h (0 Bft) O-SO 118 0 min 0,000 mm 0,0 UV-I 0 W/m 10,5 C 15,1 C 4,0 km/h (1 Bft) 0,00 %
24.08.2015 00:25 15,2 C 75 % 1008,9 hPa 0,0 l/m 0,0 km/h (0 Bft) NO 45 0 min 0,000 mm 0,0 UV-I 0 W/m 10,8 C 15,2 C 0,0 km/h (0 Bft) 0,00 %
24.08.2015 00:30 15,2 C 74 % 1008,8 hPa 0,0 l/m 0,4 km/h (0 Bft) O-NO 62 0 min 0,000 mm 0,0 UV-I 0 W/m 10,6 C 15,2 C 4,0 km/h (1 Bft) 0,00 %
24.08.2015 00:35 15,3 C 74 % 1008,9 hPa 0,0 l/m 0,0 km/h (0 Bft) N 355 0 min 0,000 mm 0,0 UV-I 0 W/m 10,7 C 15,3 C 0,0 km/h (0 Bft) 0,00 %
24.08.2015 00:40 15,2 C 77 % 1009,1 hPa 0,0 l/m 0,7 km/h (0 Bft) W-NW 290 0 min 0,000 mm 0,0 UV-I 0 W/m 11,2 C 15,2 C 4,0 km/h (1 Bft) 0,00 %
24.08.2015 00:45 15,2 C 77 % 1009,0 hPa 0,0 l/m 0,0 km/h (0 Bft) NO 47 0 min 0,000 mm 0,0 UV-I 0 W/m 11,2 C 15,2 C 0,0 km/h (0 Bft) 0,00 %
24.08.2015 00:50 15,0 C 78 % 1009,0 hPa 0,0 l/m 0,0 km/h (0 Bft) NO 55 0 min 0,000 mm 0,0 UV-I 0 W/m 11,2 C 15,0 C 0,0 km/h (0 Bft) 0,00 %
24.08.2015 00:55 14,9 C 78 % 1009,0 hPa 0,0 l/m 0,0 km/h (0 Bft) NO 55 0 min 0,000 mm 0,0 UV-I 0 W/m 11,1 C 14,9 C 0,0 km/h (0 Bft) 0,00 %
24.08.2015 01:00 14,7 C 78 % 1009,2 hPa 0,0 l/m 0,0 km/h (0 Bft) NO 55 0 min 0,000 mm 0,0 UV-I 0 W/m 10,9 C 14,7 C 0,0 km/h (0 Bft) 0,00 %
24.08.2015 01:05 14,6 C 80 % 1009,1 hPa 0,0 l/m 0,0 km/h (0 Bft) O-NO 65 0 min 0,000 mm 0,0 UV-I 0 W/m 11,2 C 14,6 C 0,0 km/h (0 Bft) 0,00 %
24.08.2015 01:10 14,5 C 80 % 1009,1 hPa 0,0 l/m 0,0 km/h (0 Bft) O-NO 67 0 min 0,000 mm 0,0 UV-I 0 W/m 11,1 C 14,5 C 0,0 km/h (0 Bft) 0,00 %
24.08.2015 01:15 14,3 C 80 % 1009,2 hPa 0,0 l/m 0,0 km/h (0 Bft) O 97 0 min 0,000 mm 0,0 UV-I 0 W/m 10,9 C 14,3 C 0,0 km/h (0 Bft) 0,00 %
24.08.2015 01:20 14,2 C 80 % 1009,0 hPa 0,0 l/m 0,0 km/h (0 Bft) O 97 0 min 0,000 mm 0,0 UV-I 0 W/m 10,8 C 14,2 C 0,0 km/h (0 Bft) 0,00 %
24.08.2015 01:25 14,1 C 82 % 1009,0 hPa 0,0 l/m 0,0 km/h (0 Bft) N-NO 31 0 min 0,000 mm 0,0 UV-I 0 W/m 11,1 C 14,1 C 0,0 km/h (0 Bft) 0,00 %
24.08.2015 01:30 13,9 C 82 % 1008,8 hPa 0,0 l/m 0,0 km/h (0 Bft) NO 56 0 min 0,000 mm 0,0 UV-I 0 W/m 10,9 C 13,9 C 0,0 km/h (0 Bft) 0,00 %
24.08.2015 01:35 13,7 C 83 % 1009,1 hPa 0,0 l/m 0,0 km/h (0 Bft) NO 36 0 min 0,000 mm 0,0 UV-I 0 W/m 10,9 C 13,7 C 0,0 km/h (0 Bft) 0,00 %
24.08.2015 01:40 13,6 C 83 % 1009,1 hPa 0,0 l/m 0,0 km/h (0 Bft) O-NO 70 0 min 0,000 mm 0,0 UV-I 0 W/m 10,8 C 13,6 C 0,0 km/h (0 Bft) 0,00 %
24.08.2015 01:45 13,5 C 84 % 1008,9 hPa 0,0 l/m 0,0 km/h (0 Bft) O 97 0 min 0,000 mm 0,0 UV-I 0 W/m 10,8 C 13,5 C 0,0 km/h (0 Bft) 0,00 %
24.08.2015 01:50 13,4 C 84 % 1009,0 hPa 0,0 l/m 0,0 km/h (0 Bft) O 97 0 min 0,000 mm 0,0 UV-I 0 W/m 10,8 C 13,4 C 0,0 km/h (0 Bft) 0,00 %
24.08.2015 01:55 13,3 C 84 % 1008,9 hPa 0,0 l/m 0,0 km/h (0 Bft) NO 42 0 min 0,000 mm 0,0 UV-I 0 W/m 10,7 C 13,3 C 0,0 km/h (0 Bft) 0,00 %
24.08.2015 02:00 13,2 C 85 % 1008,9 hPa 0,0 l/m 0,0 km/h (0 Bft) NO 40 0 min 0,000 mm 0,0 UV-I 0 W/m 10,7 C 13,2 C 0,0 km/h (0 Bft) 0,00 %
24.08.2015 02:05 13,1 C 85 % 1008,7 hPa 0,0 l/m 0,0 km/h (0 Bft) NO 41 0 min 0,000 mm 0,0 UV-I 0 W/m 10,6 C 13,1 C 0,0 km/h (0 Bft) 0,00 %
24.08.2015 02:10 12,9 C 85 % 1008,9 hPa 0,0 l/m 0,0 km/h (0 Bft) NO 54 0 min 0,000 mm 0,0 UV-I 0 W/m 10,4 C 12,9 C 0,0 km/h (0 Bft) 0,00 %
24.08.2015 02:15 12,9 C 86 % 1008,8 hPa 0,0 l/m 0,0 km/h (0 Bft) NO 42 0 min 0,000 mm 0,0 UV-I 0 W/m 10,6 C 12,9 C 0,0 km/h (0 Bft) 0,00 %
24.08.2015 02:20 12,7 C 86 % 1009,1 hPa 0,0 l/m 0,0 km/h (0 Bft) N 2 0 min 0,000 mm 0,0 UV-I 0 W/m 10,4 C 12,7 C 0,0 km/h (0 Bft) 0,00 %
24.08.2015 02:25 12,6 C 87 % 1009,0 hPa 0,0 l/m 0,0 km/h (0 Bft) NO 49 0 min 0,000 mm 0,0 UV-I 0 W/m 10,5 C 12,6 C 0,0 km/h (0 Bft) 0,00 %
24.08.2015 02:30 12,6 C 87 % 1009,0 hPa 0,0 l/m 0,0 km/h (0 Bft) NO 49 0 min 0,000 mm 0,0 UV-I 0 W/m 10,5 C 12,6 C 0,0 km/h (0 Bft) 0,00 %
24.08.2015 02:35 12,4 C 88 % 1008,9 hPa 0,0 l/m 0,0 km/h (0 Bft) O-NO 58 0 min 0,000 mm 0,0 UV-I 0 W/m 10,5 C 12,4 C 0,0 km/h (0 Bft) 0,00 %
24.08.2015 02:40 12,3 C 89 % 1008,8 hPa 0,0 l/m 0,0 km/h (0 Bft) O-NO 77 0 min 0,000 mm 0,0 UV-I 0 W/m 10,5 C 12,3 C 0,0 km/h (0 Bft) 0,00 %
24.08.2015 02:45 12,2 C 89 % 1008,8 hPa 0,0 l/m 0,0 km/h (0 Bft) NO 39 0 min 0,000 mm 0,0 UV-I 0 W/m 10,4 C 12,2 C 0,0 km/h (0 Bft) 0,00 %
24.08.2015 02:50 12,2 C 89 % 1009,1 hPa 0,0 l/m 0,0 km/h (0 Bft) NO 45 0 min 0,000 mm 0,0 UV-I 0 W/m 10,4 C 12,2 C 0,0 km/h (0 Bft) 0,00 %
24.08.2015 02:55 12,1 C 89 % 1008,8 hPa 0,0 l/m 0,0 km/h (0 Bft) NO 45 0 min 0,000 mm 0,0 UV-I 0 W/m 10,3 C 12,1 C 0,0 km/h (0 Bft) 0,00 %
24.08.2015 03:00 12,1 C 90 % 1008,8 hPa 0,0 l/m 0,0 km/h (0 Bft) NO 45 0 min 0,000 mm 0,0 UV-I 0 W/m 10,5 C 12,1 C 0,0 km/h (0 Bft) 0,00 %
24.08.2015 03:05 11,9 C 90 % 1008,8 hPa 0,0 l/m 0,0 km/h (0 Bft) NO 46 0 min 0,000 mm 0,0 UV-I 0 W/m 10,3 C 11,9 C 0,0 km/h (0 Bft) 0,00 %
24.08.2015 03:10 11,8 C 90 % 1008,6 hPa 0,0 l/m 0,0 km/h (0 Bft) NO 53 0 min 0,000 mm 0,0 UV-I 0 W/m 10,2 C 11,8 C 0,0 km/h (0 Bft) 0,00 %
24.08.2015 03:15 11,8 C 91 % 1008,7 hPa 0,0 l/m 0,0 km/h (0 Bft) NO 54 0 min 0,000 mm 0,0 UV-I 0 W/m 10,4 C 11,8 C 0,0 km/h (0 Bft) 0,00 %
24.08.2015 03:20 11,7 C 91 % 1008,9 hPa 0,0 l/m 0,0 km/h (0 Bft) O-NO 59 0 min 0,000 mm 0,0 UV-I 0 W/m 10,3 C 11,7 C 0,0 km/h (0 Bft) 0,00 %
24.08.2015 03:26 11,7 C 91 % 1008,9 hPa 0,0 l/m 0,0 km/h (0 Bft) NO 37 0 min 0,000 mm 0,0 UV-I 0 W/m 10,3 C 11,7 C 0,0 km/h (0 Bft) 0,00 %
24.08.2015 03:31 11,6 C 91 % 1008,9 hPa 0,0 l/m 0,0 km/h (0 Bft) N-NO 15 0 min 0,000 mm 0,0 UV-I 0 W/m 10,2 C 11,6 C 0,0 km/h (0 Bft) 0,00 %
24.08.2015 03:36 11,6 C 92 % 1008,8 hPa 0,0 l/m 0,0 km/h (0 Bft) NO 53 0 min 0,000 mm 0,0 UV-I 0 W/m 10,3 C 11,6 C 0,0 km/h (0 Bft) 0,00 %
24.08.2015 03:41 11,6 C 92 % 1008,9 hPa 0,0 l/m 0,0 km/h (0 Bft) O-NO 66 0 min 0,000 mm 0,0 UV-I 0 W/m 10,3 C 11,6 C 0,0 km/h (0 Bft) 0,00 %
24.08.2015 03:46 11,6 C 92 % 1008,9 hPa 0,0 l/m 0,0 km/h (0 Bft) O-NO 66 0 min 0,000 mm 0,0 UV-I 0 W/m 10,3 C 11,6 C 0,0 km/h (0 Bft) 0,00 %
24.08.2015 03:51 11,5 C 92 % 1008,7 hPa 0,0 l/m 0,0 km/h (0 Bft) O-NO 66 0 min 0,000 mm 0,0 UV-I 0 W/m 10,2 C 11,5 C 0,0 km/h (0 Bft) 0,00 %
24.08.2015 03:56 11,5 C 92 % 1008,7 hPa 0,0 l/m 0,0 km/h (0 Bft) O-NO 69 0 min 0,000 mm 0,0 UV-I 0 W/m 10,2 C 11,5 C 0,0 km/h (0 Bft) 0,00 %
24.08.2015 04:01 11,5 C 93 % 1008,8 hPa 0,0 l/m 0,0 km/h (0 Bft) O-NO 69 0 min 0,000 mm 0,0 UV-I 0 W/m 10,4 C 11,5 C 0,0 km/h (0 Bft) 0,00 %
24.08.2015 04:06 11,5 C 93 % 1008,9 hPa 0,0 l/m 0,0 km/h (0 Bft) O-NO 69 0 min 0,000 mm 0,0 UV-I 0 W/m 10,4 C 11,5 C 0,0 km/h (0 Bft) 0,00 %
24.08.2015 04:11 11,5 C 93 % 1008,8 hPa 0,0 l/m 0,0 km/h (0 Bft) O-NO 68 0 min 0,000 mm 0,0 UV-I 0 W/m 10,4 C 11,5 C 0,0 km/h (0 Bft) 0,00 %
24.08.2015 04:16 11,5 C 93 % 1008,8 hPa 0,0 l/m 0,0 km/h (0 Bft) NO 51 0 min 0,000 mm 0,0 UV-I 0 W/m 10,4 C 11,5 C 0,0 km/h (0 Bft) 0,00 %
24.08.2015 04:21 11,5 C 93 % 1009,0 hPa 0,0 l/m 0,0 km/h (0 Bft) O-NO 68 0 min 0,000 mm 0,0 UV-I 0 W/m 10,4 C 11,5 C 0,0 km/h (0 Bft) 0,00 %
24.08.2015 04:26 11,5 C 93 % 1008,9 hPa 0,0 l/m 0,0 km/h (0 Bft) O-NO 68 0 min 0,000 mm 0,0 UV-I 0 W/m 10,4 C 11,5 C 0,0 km/h (0 Bft) 0,00 %
24.08.2015 04:31 11,5 C 93 % 1009,0 hPa 0,0 l/m 0,0 km/h (0 Bft) NO 50 0 min 0,000 mm 0,0 UV-I 0 W/m 10,4 C 11,5 C 0,0 km/h (0 Bft) 0,00 %
24.08.2015 04:36 11,5 C 93 % 1009,0 hPa 0,0 l/m 0,0 km/h (0 Bft) NO 51 0 min 0,000 mm 0,0 UV-I 0 W/m 10,4 C 11,5 C 0,0 km/h (0 Bft) 0,00 %
24.08.2015 04:41 11,4 C 93 % 1009,0 hPa 0,0 l/m 0,0 km/h (0 Bft) NO 51 0 min 0,000 mm 0,0 UV-I 0 W/m 10,3 C 11,4 C 0,0 km/h (0 Bft) 0,00 %
24.08.2015 04:46 11,4 C 93 % 1009,0 hPa 0,0 l/m 0,0 km/h (0 Bft) NO 51 0 min 0,000 mm 0,0 UV-I 0 W/m 10,3 C 11,4 C 0,0 km/h (0 Bft) 0,00 %
24.08.2015 04:51 11,3 C 93 % 1008,8 hPa 0,0 l/m 0,0 km/h (0 Bft) NO 51 0 min 0,000 mm 0,0 UV-I 0 W/m 10,2 C 11,3 C 0,0 km/h (0 Bft) 0,00 %
24.08.2015 04:56 11,2 C 93 % 1008,9 hPa 0,0 l/m 0,0 km/h (0 Bft) NO 37 0 min 0,000 mm 0,0 UV-I 0 W/m 10,1 C 11,2 C 0,0 km/h (0 Bft) 0,00 %
24.08.2015 05:01 11,0 C 94 % 1008,9 hPa 0,0 l/m 0,0 km/h (0 Bft) NO 42 0 min 0,000 mm 0,0 UV-I 0 W/m 10,1 C 11,0 C 0,0 km/h (0 Bft) 0,00 %
24.08.2015 05:06 10,9 C 94 % 1008,8 hPa 0,0 l/m 0,0 km/h (0 Bft) NO 46 0 min 0,000 mm 0,0 UV-I 0 W/m 10,0 C 10,9 C 0,0 km/h (0 Bft) 0,00 %
24.08.2015 05:11 10,9 C 93 % 1008,8 hPa 0,0 l/m 0,0 km/h (0 Bft) NO 44 0 min 0,000 mm 0,0 UV-I 0 W/m 9,8 C 10,9 C 0,0 km/h (0 Bft) 0,00 %
24.08.2015 05:16 10,9 C 95 % 1008,9 hPa 0,0 l/m 0,0 km/h (0 Bft) NO 37 0 min 0,000 mm 0,0 UV-I 0 W/m 10,1 C 10,9 C 0,0 km/h (0 Bft) 0,00 %
24.08.2015 05:21 10,9 C 95 % 1008,7 hPa 0,0 l/m 0,0 km/h (0 Bft) NO 37 0 min 0,000 mm 0,0 UV-I 0 W/m 10,1 C 10,9 C 0,0 km/h (0 Bft) 0,00 %
24.08.2015 05:26 10,8 C 95 % 1008,6 hPa 0,0 l/m 0,0 km/h (0 Bft) NO 43 0 min 0,000 mm 0,0 UV-I 0 W/m 10,0 C 10,8 C 0,0 km/h (0 Bft) 0,00 %
24.08.2015 05:31 10,8 C 95 % 1008,9 hPa 0,0 l/m 0,0 km/h (0 Bft) NO 43 0 min 0,000 mm 0,0 UV-I 0 W/m 10,0 C 10,8 C 0,0 km/h (0 Bft) 0,00 %
24.08.2015 05:36 10,7 C 95 % 1008,8 hPa 0,0 l/m 0,0 km/h (0 Bft) NO 44 0 min 0,000 mm 0,0 UV-I 0 W/m 9,9 C 10,7 C 0,0 km/h (0 Bft) 0,00 %
24.08.2015 05:41 10,7 C 95 % 1009,0 hPa 0,0 l/m 0,0 km/h (0 Bft) NO 46 0 min 0,000 mm 0,0 UV-I 0 W/m 9,9 C 10,7 C 0,0 km/h (0 Bft) 0,00 %
24.08.2015 05:46 10,6 C 96 % 1008,9 hPa 0,0 l/m 0,0 km/h (0 Bft) NO 54 0 min 0,000 mm 0,0 UV-I 0 W/m 10,0 C 10,6 C 0,0 km/h (0 Bft) 0,00 %
24.08.2015 05:51 10,5 C 96 % 1009,1 hPa 0,0 l/m 0,0 km/h (0 Bft) NO 54 0 min 0,000 mm 0,0 UV-I 0 W/m 9,9 C 10,5 C 0,0 km/h (0 Bft) 0,00 %
24.08.2015 05:56 10,4 C 96 % 1009,0 hPa 0,0 l/m 0,0 km/h (0 Bft) NO 46 0 min 0,000 mm 0,0 UV-I 0 W/m 9,8 C 10,4 C 0,0 km/h (0 Bft) 0,00 %
24.08.2015 06:01 10,4 C 96 % 1009,2 hPa 0,0 l/m 0,0 km/h (0 Bft) NO 50 0 min 0,000 mm 0,0 UV-I 0 W/m 9,8 C 10,4 C 0,0 km/h (0 Bft) 0,00 %
24.08.2015 06:06 10,4 C 96 % 1009,1 hPa 0,0 l/m 0,0 km/h (0 Bft) N-NO 31 0 min 0,000 mm 0,0 UV-I 0 W/m 9,8 C 10,4 C 0,0 km/h (0 Bft) 0,00 %
24.08.2015 06:11 10,4 C 97 % 1009,0 hPa 0,0 l/m 0,0 km/h (0 Bft) NO 55 0 min 0,000 mm 0,0 UV-I 0 W/m 9,9 C 10,4 C 0,0 km/h (0 Bft) 0,00 %
24.08.2015 06:16 10,5 C 97 % 1009,1 hPa 0,0 l/m 0,0 km/h (0 Bft) O-NO 77 0 min 0,000 mm 0,0 UV-I 5 W/m 10,0 C 10,5 C 0,0 km/h (0 Bft) 0,00 %
24.08.2015 06:21 10,7 C 96 % 1008,9 hPa 0,0 l/m 0,0 km/h (0 Bft) NO 49 5 min 0,000 mm 0,0 UV-I 10 W/m 10,1 C 10,7 C 0,0 km/h (0 Bft) 0,00 %
24.08.2015 06:26 11,0 C 97 % 1009,1 hPa 0,0 l/m 0,0 km/h (0 Bft) O-NO 76 5 min 0,000 mm 0,0 UV-I 20 W/m 10,5 C 11,0 C 0,0 km/h (0 Bft) 0,00 %
24.08.2015 06:31 11,5 C 96 % 1009,1 hPa 0,0 l/m 1,4 km/h (1 Bft) O-SO 109 5 min 0,000 mm 0,0 UV-I 32 W/m 10,9 C 11,5 C 4,0 km/h (1 Bft) 0,00 %
24.08.2015 06:36 12,1 C 96 % 1009,1 hPa 0,0 l/m 0,0 km/h (0 Bft) O 91 5 min 0,000 mm 0,0 UV-I 63 W/m 11,5 C 12,1 C 0,0 km/h (0 Bft) 0,00 %
24.08.2015 06:41 12,7 C 94 % 1009,1 hPa 0,0 l/m 3,2 km/h (1 Bft) O 94 5 min 0,000 mm 0,0 UV-I 76 W/m 11,8 C 12,7 C 7,9 km/h (2 Bft) 0,00 %
24.08.2015 06:46 13,3 C 89 % 1009,1 hPa 0,0 l/m 0,0 km/h (0 Bft) O 90 5 min 0,000 mm 0,0 UV-I 84 W/m 11,5 C 13,3 C 0,0 km/h (0 Bft) 0,00 %
24.08.2015 06:51 14,0 C 84 % 1009,2 hPa 0,0 l/m 0,0 km/h (0 Bft) O-NO 73 5 min 0,000 mm 0,0 UV-I 88 W/m 11,3 C 14,0 C 0,0 km/h (0 Bft) 0,00 %
24.08.2015 06:56 14,5 C 82 % 1009,3 hPa 0,0 l/m 0,0 km/h (0 Bft) NO 54 0 min 0,000 mm 0,0 UV-I 33 W/m 11,5 C 14,5 C 0,0 km/h (0 Bft) 0,00 %
24.08.2015 07:01 14,6 C 81 % 1009,3 hPa 0,0 l/m 0,0 km/h (0 Bft) NO 43 0 min 0,000 mm 0,0 UV-I 36 W/m 11,4 C 14,6 C 0,0 km/h (0 Bft) 0,00 %
24.08.2015 07:06 14,6 C 81 % 1009,2 hPa 0,0 l/m 0,0 km/h (0 Bft) NO 46 0 min 0,000 mm 0,0 UV-I 38 W/m 11,4 C 14,6 C 0,0 km/h (0 Bft) 0,00 %
24.08.2015 07:11 14,6 C 81 % 1009,2 hPa 0,0 l/m 0,0 km/h (0 Bft) O-NO 73 0 min 0,000 mm 0,0 UV-I 45 W/m 11,4 C 14,6 C 0,0 km/h (0 Bft) 0,00 %
24.08.2015 07:16 14,5 C 82 % 1009,5 hPa 0,0 l/m 0,0 km/h (0 Bft) NO 40 0 min 0,000 mm 0,0 UV-I 48 W/m 11,5 C 14,5 C 0,0 km/h (0 Bft) 0,00 %
24.08.2015 07:21 14,4 C 82 % 1009,3 hPa 0,0 l/m 0,0 km/h (0 Bft) NO 44 0 min 0,000 mm 0,0 UV-I 48 W/m 11,4 C 14,4 C 0,0 km/h (0 Bft) 0,00 %
24.08.2015 07:26 14,4 C 83 % 1009,3 hPa 0,0 l/m 0,0 km/h (0 Bft) NO 46 0 min 0,000 mm 0,0 UV-I 52 W/m 11,5 C 14,4 C 0,0 km/h (0 Bft) 0,00 %
24.08.2015 07:31 14,3 C 83 % 1009,4 hPa 0,0 l/m 0,0 km/h (0 Bft) O-NO 62 0 min 0,000 mm 0,0 UV-I 65 W/m 11,5 C 14,3 C 0,0 km/h (0 Bft) 0,00 %
24.08.2015 07:36 14,3 C 84 % 1009,2 hPa 0,0 l/m 0,0 km/h (0 Bft) O 83 0 min 0,000 mm 0,0 UV-I 78 W/m 11,6 C 14,3 C 0,0 km/h (0 Bft) 0,00 %
24.08.2015 07:41 14,3 C 83 % 1009,4 hPa 0,0 l/m 0,0 km/h (0 Bft) O 91 0 min 0,000 mm 1,0 UV-I 86 W/m 11,5 C 14,3 C 0,0 km/h (0 Bft) 0,00 %
24.08.2015 07:46 14,4 C 84 % 1009,3 hPa 0,0 l/m 0,0 km/h (0 Bft) O-NO 68 0 min 0,000 mm 1,0 UV-I 102 W/m 11,7 C 14,4 C 0,0 km/h (0 Bft) 0,00 %
24.08.2015 07:51 14,5 C 83 % 1009,2 hPa 0,0 l/m 0,0 km/h (0 Bft) NO 40 0 min 0,000 mm 1,0 UV-I 121 W/m 11,6 C 14,5 C 0,0 km/h (0 Bft) 0,00 %
24.08.2015 07:56 14,8 C 82 % 1009,0 hPa 0,0 l/m 0,0 km/h (0 Bft) O-NO 72 0 min 0,000 mm 1,0 UV-I 152 W/m 11,8 C 14,8 C 0,0 km/h (0 Bft) 0,00 %
24.08.2015 08:01 15,1 C 81 % 1009,1 hPa 0,0 l/m 0,0 km/h (0 Bft) NO 55 0 min 0,000 mm 1,0 UV-I 123 W/m 11,9 C 15,1 C 0,0 km/h (0 Bft) 0,00 %
24.08.2015 08:06 15,3 C 80 % 1009,1 hPa 0,0 l/m 0,0 km/h (0 Bft) NO 45 0 min 0,000 mm 1,0 UV-I 124 W/m 11,9 C 15,3 C 0,0 km/h (0 Bft) 0,00 %
24.08.2015 08:11 15,4 C 80 % 1009,1 hPa 0,0 l/m 0,0 km/h (0 Bft) NO 49 0 min 0,000 mm 1,0 UV-I 120 W/m 12,0 C 15,4 C 0,0 km/h (0 Bft) 0,00 %
24.08.2015 08:16 15,5 C 79 % 1009,1 hPa 0,0 l/m 1,4 km/h (1 Bft) O 83 0 min 0,000 mm 1,0 UV-I 117 W/m 11,9 C 15,5 C 4,0 km/h (1 Bft) 0,00 %
24.08.2015 08:21 15,5 C 79 % 1009,3 hPa 0,0 l/m 0,0 km/h (0 Bft) NO 40 0 min 0,000 mm 1,0 UV-I 120 W/m 11,9 C 15,5 C 0,0 km/h (0 Bft) 0,00 %
24.08.2015 08:26 15,5 C 79 % 1009,1 hPa 0,0 l/m 0,7 km/h (0 Bft) O-NO 58 0 min 0,000 mm 1,0 UV-I 140 W/m 11,9 C 15,5 C 4,0 km/h (1 Bft) 0,00 %
24.08.2015 08:31 15,6 C 79 % 1009,0 hPa 0,0 l/m 0,0 km/h (0 Bft) O-NO 78 0 min 0,000 mm 1,0 UV-I 140 W/m 12,0 C 15,6 C 0,0 km/h (0 Bft) 0,00 %
24.08.2015 08:36 15,7 C 79 % 1009,0 hPa 0,0 l/m 2,9 km/h (1 Bft) O-SO 112 0 min 0,000 mm 1,0 UV-I 112 W/m 12,1 C 15,7 C 7,9 km/h (2 Bft) 0,00 %
24.08.2015 08:41 15,8 C 78 % 1009,0 hPa 0,0 l/m 0,0 km/h (0 Bft) O-NO 71 0 min 0,000 mm 1,0 UV-I 90 W/m 12,0 C 15,8 C 0,0 km/h (0 Bft) 0,00 %
24.08.2015 08:46 15,8 C 79 % 1008,8 hPa 0,0 l/m 0,0 km/h (0 Bft) NO 43 0 min 0,000 mm 1,0 UV-I 106 W/m 12,2 C 15,8 C 0,0 km/h (0 Bft) 0,00 %
24.08.2015 08:51 15,8 C 77 % 1009,0 hPa 0,0 l/m 0,0 km/h (0 Bft) O-NO 57 0 min 0,000 mm 1,0 UV-I 219 W/m 11,8 C 15,8 C 0,0 km/h (0 Bft) 0,00 %
24.08.2015 08:56 16,3 C 73 % 1009,0 hPa 0,0 l/m 7,9 km/h (2 Bft) O 84 0 min 0,000 mm 1,0 UV-I 228 W/m 11,4 C 15,5 C 11,9 km/h (2 Bft) 0,00 %
24.08.2015 09:01 17,3 C 70 % 1009,0 hPa 0,0 l/m 0,0 km/h (0 Bft) NO 50 0 min 0,000 mm 1,0 UV-I 237 W/m 11,8 C 17,3 C 0,0 km/h (0 Bft) 0,00 %
24.08.2015 09:06 18,2 C 66 % 1009,0 hPa 0,0 l/m 6,5 km/h (2 Bft) O 90 0 min 0,000 mm 1,0 UV-I 248 W/m 11,7 C 18,2 C 11,9 km/h (2 Bft) 0,00 %
24.08.2015 09:11 18,8 C 65 % 1008,9 hPa 0,0 l/m 3,2 km/h (1 Bft) O-SO 120 0 min 0,000 mm 1,0 UV-I 249 W/m 12,1 C 18,8 C 4,0 km/h (1 Bft) 0,00 %
24.08.2015 09:16 19,0 C 65 % 1008,8 hPa 0,0 l/m 0,4 km/h (0 Bft) O 88 0 min 0,000 mm 1,0 UV-I 267 W/m 12,3 C 19,0 C 4,0 km/h (1 Bft) 0,00 %
24.08.2015 09:21 19,2 C 63 % 1008,6 hPa 0,0 l/m 2,2 km/h (1 Bft) SO 135 5 min 0,000 mm 1,0 UV-I 278 W/m 12,0 C 19,2 C 7,9 km/h (2 Bft) 0,00 %
24.08.2015 09:26 19,5 C 63 % 1008,9 hPa 0,0 l/m 4,0 km/h (1 Bft) SO 130 5 min 0,000 mm 1,0 UV-I 287 W/m 12,3 C 19,5 C 7,9 km/h (2 Bft) 0,00 %
24.08.2015 09:31 19,8 C 61 % 1008,9 hPa 0,0 l/m 3,2 km/h (1 Bft) O 79 5 min 0,000 mm 2,0 UV-I 296 W/m 12,1 C 19,8 C 4,0 km/h (1 Bft) 0,00 %
24.08.2015 09:36 20,0 C 60 % 1008,9 hPa 0,0 l/m 11,5 km/h (2 Bft) SO 130 0 min 0,000 mm 2,0 UV-I 283 W/m 12,0 C 18,2 C 15,8 km/h (3 Bft) 0,00 %
24.08.2015 09:41 20,0 C 60 % 1008,9 hPa 0,0 l/m 6,5 km/h (2 Bft) O 92 5 min 0,000 mm 2,0 UV-I 321 W/m 12,0 C 20,0 C 7,9 km/h (2 Bft) 0,00 %
24.08.2015 09:46 20,2 C 60 % 1008,9 hPa 0,0 l/m 4,0 km/h (1 Bft) O-NO 72 5 min 0,000 mm 2,0 UV-I 322 W/m 12,2 C 20,2 C 7,9 km/h (2 Bft) 0,00 %
24.08.2015 09:51 20,5 C 60 % 1008,7 hPa 0,0 l/m 1,4 km/h (1 Bft) O 100 0 min 0,000 mm 2,0 UV-I 197 W/m 12,5 C 20,5 C 4,0 km/h (1 Bft) 0,00 %
24.08.2015 09:56 20,7 C 60 % 1008,8 hPa 0,0 l/m 5,8 km/h (2 Bft) O-NO 59 0 min 0,000 mm 1,0 UV-I 123 W/m 12,7 C 20,7 C 7,9 km/h (2 Bft) 0,00 %
24.08.2015 10:01 20,5 C 60 % 1008,7 hPa 0,0 l/m 6,5 km/h (2 Bft) O-NO 77 5 min 0,000 mm 1,0 UV-I 358 W/m 12,5 C 20,5 C 7,9 km/h (2 Bft) 0,00 %
24.08.2015 10:06 20,3 C 60 % 1008,5 hPa 0,0 l/m 6,8 km/h (2 Bft) O-SO 107 5 min 0,000 mm 2,0 UV-I 377 W/m 12,3 C 20,1 C 7,9 km/h (2 Bft) 0,00 %
24.08.2015 10:11 20,6 C 58 % 1008,6 hPa 0,0 l/m 1,8 km/h (1 Bft) S 172 5 min 0,000 mm 2,0 UV-I 393 W/m 12,0 C 20,6 C 4,0 km/h (1 Bft) 0,00 %
24.08.2015 10:16 20,9 C 58 % 1008,5 hPa 0,0 l/m 4,3 km/h (1 Bft) O-SO 109 5 min 0,000 mm 2,0 UV-I 409 W/m 12,3 C 20,9 C 7,9 km/h (2 Bft) 0,00 %
24.08.2015 10:21 21,3 C 55 % 1008,6 hPa 0,0 l/m 10,4 km/h (2 Bft) O-NO 78 5 min 0,000 mm 2,0 UV-I 422 W/m 11,9 C 20,0 C 11,9 km/h (2 Bft) 0,00 %
24.08.2015 10:26 21,8 C 55 % 1008,7 hPa 0,0 l/m 6,8 km/h (2 Bft) O 80 5 min 0,000 mm 2,0 UV-I 437 W/m 12,4 C 21,7 C 7,9 km/h (2 Bft) 0,00 %
24.08.2015 10:31 22,1 C 54 % 1008,6 hPa 0,0 l/m 6,5 km/h (2 Bft) O-SO 114 5 min 0,000 mm 2,0 UV-I 454 W/m 12,3 C 22,1 C 7,9 km/h (2 Bft) 0,00 %
24.08.2015 10:36 22,3 C 53 % 1008,8 hPa 0,0 l/m 5,4 km/h (1 Bft) O-SO 123 5 min 0,000 mm 2,0 UV-I 478 W/m 12,2 C 22,3 C 11,9 km/h (2 Bft) 0,00 %
24.08.2015 10:41 22,7 C 52 % 1009,0 hPa 0,0 l/m 0,0 km/h (0 Bft) NO 53 5 min 0,000 mm 2,0 UV-I 484 W/m 12,3 C 22,7 C 0,0 km/h (0 Bft) 0,00 %
24.08.2015 10:46 23,1 C 51 % 1009,1 hPa 0,0 l/m 0,4 km/h (0 Bft) S-SO 151 5 min 0,000 mm 2,0 UV-I 500 W/m 12,4 C 23,1 C 4,0 km/h (1 Bft) 0,00 %
24.08.2015 10:51 23,6 C 48 % 1009,2 hPa 0,0 l/m 0,0 km/h (0 Bft) O-NO 72 5 min 0,000 mm 2,0 UV-I 527 W/m 11,9 C 23,6 C 0,0 km/h (0 Bft) 0,00 %
24.08.2015 10:56 24,3 C 46 % 1009,2 hPa 0,0 l/m 0,0 km/h (0 Bft) O-NO 61 5 min 0,000 mm 3,0 UV-I 582 W/m 11,9 C 24,3 C 0,0 km/h (0 Bft) 0,00 %
24.08.2015 11:01 24,6 C 46 % 1008,9 hPa 0,0 l/m 5,8 km/h (2 Bft) SO 129 0 min 0,000 mm 2,0 UV-I 378 W/m 12,2 C 24,6 C 7,9 km/h (2 Bft) 0,00 %
24.08.2015 11:06 24,6 C 47 % 1009,0 hPa 0,0 l/m 0,0 km/h (0 Bft) O-SO 107 5 min 0,000 mm 2,0 UV-I 401 W/m 12,5 C 24,6 C 0,0 km/h (0 Bft) 0,00 %
24.08.2015 11:11 24,4 C 49 % 1008,7 hPa 0,0 l/m 0,7 km/h (0 Bft) NO 52 5 min 0,000 mm 3,0 UV-I 689 W/m 13,0 C 24,4 C 4,0 km/h (1 Bft) 0,00 %
24.08.2015 11:16 24,0 C 50 % 1008,7 hPa 0,0 l/m 4,7 km/h (1 Bft) O 96 5 min 0,000 mm 3,0 UV-I 524 W/m 12,9 C 24,0 C 7,9 km/h (2 Bft) 0,00 %
24.08.2015 11:21 23,7 C 51 % 1008,6 hPa 0,0 l/m 6,8 km/h (2 Bft) S 180 0 min 0,000 mm 2,0 UV-I 385 W/m 13,0 C 23,6 C 11,9 km/h (2 Bft) 0,00 %
24.08.2015 11:26 23,6 C 48 % 1008,5 hPa 0,0 l/m 4,7 km/h (1 Bft) O-SO 105 0 min 0,000 mm 2,0 UV-I 323 W/m 11,9 C 23,6 C 7,9 km/h (2 Bft) 0,00 %
24.08.2015 11:31 23,3 C 51 % 1008,7 hPa 0,0 l/m 2,2 km/h (1 Bft) S-SW 205 0 min 0,000 mm 2,0 UV-I 345 W/m 12,6 C 23,3 C 4,0 km/h (1 Bft) 0,00 %
24.08.2015 11:36 23,1 C 49 % 1008,6 hPa 0,0 l/m 1,4 km/h (1 Bft) NO 40 0 min 0,000 mm 2,0 UV-I 378 W/m 11,8 C 23,1 C 4,0 km/h (1 Bft) 0,00 %
24.08.2015 11:41 23,1 C 50 % 1008,4 hPa 0,0 l/m 2,9 km/h (1 Bft) N-NO 21 5 min 0,000 mm 2,0 UV-I 456 W/m 12,1 C 23,1 C 7,9 km/h (2 Bft) 0,00 %
24.08.2015 11:46 23,4 C 48 % 1008,5 hPa 0,0 l/m 2,2 km/h (1 Bft) S 183 5 min 0,000 mm 3,0 UV-I 539 W/m 11,8 C 23,4 C 4,0 km/h (1 Bft) 0,00 %
24.08.2015 11:51 24,0 C 46 % 1008,5 hPa 0,0 l/m 5,8 km/h (2 Bft) O-SO 112 5 min 0,000 mm 4,0 UV-I 944 W/m 11,7 C 24,0 C 11,9 km/h (2 Bft) 0,00 %
24.08.2015 11:56 24,7 C 44 % 1008,6 hPa 0,0 l/m 9,4 km/h (2 Bft) O-NO 73 5 min 0,000 mm 4,0 UV-I 1041 W/m 11,6 C 24,0 C 15,8 km/h (3 Bft) 0,00 %
24.08.2015 12:01 25,1 C 43 % 1008,5 hPa 0,0 l/m 3,2 km/h (1 Bft) O-NO 78 0 min 0,000 mm 2,0 UV-I 392 W/m 11,6 C 25,1 C 7,9 km/h (2 Bft) 0,00 %
24.08.2015 12:06 25,0 C 45 % 1008,6 hPa 0,0 l/m 0,4 km/h (0 Bft) O 99 5 min 0,000 mm 2,0 UV-I 453 W/m 12,2 C 25,0 C 4,0 km/h (1 Bft) 0,00 %
24.08.2015 12:11 24,6 C 46 % 1008,6 hPa 0,0 l/m 1,4 km/h (1 Bft) SO 128 5 min 0,000 mm 4,0 UV-I 862 W/m 12,2 C 24,6 C 4,0 km/h (1 Bft) 0,00 %
24.08.2015 12:16 24,6 C 45 % 1008,3 hPa 0,0 l/m 6,8 km/h (2 Bft) N 5 5 min 0,000 mm 3,0 UV-I 700 W/m 11,9 C 24,5 C 11,9 km/h (2 Bft) 0,00 %
24.08.2015 12:21 25,0 C 43 % 1008,4 hPa 0,0 l/m 0,7 km/h (0 Bft) N-NW 327 5 min 0,000 mm 4,0 UV-I 950 W/m 11,5 C 25,0 C 4,0 km/h (1 Bft) 0,00 %
24.08.2015 12:26 25,3 C 43 % 1008,2 hPa 0,0 l/m 9,7 km/h (2 Bft) NO 54 5 min 0,000 mm 4,0 UV-I 870 W/m 11,8 C 24,6 C 11,9 km/h (2 Bft) 0,00 %
24.08.2015 12:31 25,4 C 43 % 1008,3 hPa 0,0 l/m 7,2 km/h (2 Bft) O-SO 115 5 min 0,000 mm 4,0 UV-I 834 W/m 11,9 C 25,2 C 15,8 km/h (3 Bft) 0,00 %
24.08.2015 12:36 25,6 C 43 % 1008,3 hPa 0,0 l/m 4,3 km/h (1 Bft) O-NO 65 5 min 0,000 mm 3,0 UV-I 553 W/m 12,1 C 25,6 C 7,9 km/h (2 Bft) 0,00 %
24.08.2015 12:41 25,6 C 44 % 1008,0 hPa 0,0 l/m 8,3 km/h (2 Bft) O-SO 102 5 min 0,000 mm 4,0 UV-I 838 W/m 12,4 C 25,2 C 11,9 km/h (2 Bft) 0,00 %
24.08.2015 12:46 25,7 C 42 % 1008,2 hPa 0,0 l/m 6,8 km/h (2 Bft) O-SO 108 5 min 0,000 mm 3,0 UV-I 464 W/m 11,8 C 25,6 C 7,9 km/h (2 Bft) 0,00 %
24.08.2015 12:51 25,9 C 42 % 1008,2 hPa 0,0 l/m 5,8 km/h (2 Bft) O-SO 117 5 min 0,000 mm 4,0 UV-I 872 W/m 12,0 C 25,9 C 7,9 km/h (2 Bft) 0,00 %
24.08.2015 12:56 26,1 C 42 % 1008,1 hPa 0,0 l/m 5,8 km/h (2 Bft) NO 39 5 min 0,000 mm 4,0 UV-I 780 W/m 12,2 C 26,1 C 7,9 km/h (2 Bft) 0,00 %
24.08.2015 13:01 26,3 C 42 % 1008,1 hPa 0,0 l/m 2,9 km/h (1 Bft) O-NO 58 5 min 0,000 mm 4,0 UV-I 875 W/m 12,3 C 26,3 C 7,9 km/h (2 Bft) 0,00 %
24.08.2015 13:06 26,5 C 41 % 1007,8 hPa 0,0 l/m 2,9 km/h (1 Bft) NO 51 5 min 0,000 mm 4,0 UV-I 849 W/m 12,2 C 26,5 C 4,0 km/h (1 Bft) 0,00 %
24.08.2015 13:11 26,8 C 41 % 1008,1 hPa 0,0 l/m 9,4 km/h (2 Bft) O-SO 117 5 min 0,000 mm 4,0 UV-I 841 W/m 12,4 C 26,2 C 15,8 km/h (3 Bft) 0,00 %
24.08.2015 13:16 26,7 C 41 % 1007,9 hPa 0,0 l/m 9,7 km/h (2 Bft) S-SO 157 5 min 0,000 mm 4,0 UV-I 836 W/m 12,3 C 26,1 C 11,9 km/h (2 Bft) 0,00 %
24.08.2015 13:21 26,6 C 41 % 1007,9 hPa 0,0 l/m 4,7 km/h (1 Bft) S-SO 154 5 min 0,000 mm 4,0 UV-I 807 W/m 12,2 C 26,6 C 7,9 km/h (2 Bft) 0,00 %
24.08.2015 13:26 26,7 C 40 % 1007,9 hPa 0,0 l/m 5,4 km/h (1 Bft) O-SO 104 5 min 0,000 mm 3,0 UV-I 610 W/m 12,0 C 26,7 C 7,9 km/h (2 Bft) 0,00 %
24.08.2015 13:31 26,7 C 41 % 1007,8 hPa 0,0 l/m 7,2 km/h (2 Bft) O-SO 102 5 min 0,000 mm 4,0 UV-I 878 W/m 12,3 C 26,5 C 11,9 km/h (2 Bft) 0,00 %
24.08.2015 13:36 26,7 C 41 % 1007,8 hPa 0,0 l/m 5,8 km/h (2 Bft) O-NO 63 5 min 0,000 mm 4,0 UV-I 786 W/m 12,3 C 26,7 C 7,9 km/h (2 Bft) 0,00 %
24.08.2015 13:41 26,6 C 41 % 1007,8 hPa 0,0 l/m 6,8 km/h (2 Bft) O-NO 74 5 min 0,000 mm 4,0 UV-I 904 W/m 12,2 C 26,5 C 11,9 km/h (2 Bft) 0,00 %
24.08.2015 13:46 26,6 C 41 % 1007,7 hPa 0,0 l/m 6,5 km/h (2 Bft) S-SW 199 5 min 0,000 mm 2,0 UV-I 469 W/m 12,2 C 26,6 C 11,9 km/h (2 Bft) 0,00 %
24.08.2015 13:51 26,6 C 42 % 1007,8 hPa 0,0 l/m 4,3 km/h (1 Bft) O-NO 72 5 min 0,000 mm 3,0 UV-I 832 W/m 12,6 C 26,6 C 7,9 km/h (2 Bft) 0,00 %
24.08.2015 13:56 26,6 C 43 % 1007,5 hPa 0,0 l/m 4,0 km/h (1 Bft) O-NO 69 5 min 0,000 mm 2,0 UV-I 532 W/m 13,0 C 26,6 C 7,9 km/h (2 Bft) 0,00 %
24.08.2015 14:01 26,6 C 42 % 1007,4 hPa 0,0 l/m 6,8 km/h (2 Bft) SW 217 0 min 0,000 mm 2,0 UV-I 425 W/m 12,6 C 26,5 C 7,9 km/h (2 Bft) 0,00 %
24.08.2015 14:06 26,6 C 43 % 1007,5 hPa 0,0 l/m 5,4 km/h (1 Bft) O 99 5 min 0,000 mm 2,0 UV-I 546 W/m 13,0 C 26,6 C 7,9 km/h (2 Bft) 0,00 %
24.08.2015 14:11 26,5 C 43 % 1007,4 hPa 0,0 l/m 3,2 km/h (1 Bft) O-NO 60 5 min 0,000 mm 3,0 UV-I 739 W/m 12,9 C 26,5 C 7,9 km/h (2 Bft) 0,00 %
24.08.2015 14:16 26,8 C 43 % 1007,5 hPa 0,0 l/m 11,5 km/h (2 Bft) SO 135 5 min 0,000 mm 3,0 UV-I 746 W/m 13,2 C 25,9 C 15,8 km/h (3 Bft) 0,00 %
24.08.2015 14:21 27,0 C 43 % 1007,4 hPa 0,0 l/m 6,8 km/h (2 Bft) O-SO 104 5 min 0,000 mm 3,0 UV-I 713 W/m 13,3 C 26,9 C 7,9 km/h (2 Bft) 0,00 %
24.08.2015 14:26 27,3 C 43 % 1007,3 hPa 0,0 l/m 2,9 km/h (1 Bft) O 80 5 min 0,000 mm 3,0 UV-I 727 W/m 13,6 C 27,3 C 4,0 km/h (1 Bft) 0,00 %
24.08.2015 14:31 27,4 C 43 % 1007,5 hPa 0,0 l/m 15,8 km/h (3 Bft) SO 136 5 min 0,000 mm 3,0 UV-I 956 W/m 13,7 C 26,1 C 19,8 km/h (3 Bft) 0,00 %
24.08.2015 14:36 27,4 C 43 % 1007,4 hPa 0,0 l/m 1,4 km/h (1 Bft) O-NO 64 0 min 0,000 mm 2,0 UV-I 297 W/m 13,7 C 27,4 C 4,0 km/h (1 Bft) 0,00 %
24.08.2015 14:41 27,1 C 42 % 1007,4 hPa 0,0 l/m 2,2 km/h (1 Bft) NO 46 5 min 0,000 mm 2,0 UV-I 505 W/m 13,1 C 27,1 C 4,0 km/h (1 Bft) 0,00 %
24.08.2015 14:46 26,7 C 44 % 1007,4 hPa 0,0 l/m 6,8 km/h (2 Bft) O 80 5 min 0,000 mm 3,0 UV-I 664 W/m 13,4 C 26,6 C 11,9 km/h (2 Bft) 0,00 %
24.08.2015 14:51 26,8 C 44 % 1007,3 hPa 0,0 l/m 5,4 km/h (1 Bft) NO 56 5 min 0,000 mm 3,0 UV-I 865 W/m 13,5 C 26,8 C 7,9 km/h (2 Bft) 0,00 %
24.08.2015 14:56 27,2 C 43 % 1007,3 hPa 0,0 l/m 4,7 km/h (1 Bft) O 95 5 min 0,000 mm 3,0 UV-I 850 W/m 13,5 C 27,2 C 7,9 km/h (2 Bft) 0,00 %
24.08.2015 15:01 27,5 C 43 % 1007,1 hPa 0,0 l/m 4,0 km/h (1 Bft) O-NO 61 5 min 0,000 mm 3,0 UV-I 853 W/m 13,8 C 27,5 C 7,9 km/h (2 Bft) 0,00 %
24.08.2015 15:06 27,6 C 43 % 1007,1 hPa 0,0 l/m 6,5 km/h (2 Bft) O-SO 111 5 min 0,000 mm 3,0 UV-I 851 W/m 13,9 C 27,6 C 7,9 km/h (2 Bft) 0,00 %
24.08.2015 15:11 27,6 C 43 % 1007,0 hPa 0,0 l/m 6,5 km/h (2 Bft) O 98 5 min 0,000 mm 3,0 UV-I 848 W/m 13,9 C 27,6 C 11,9 km/h (2 Bft) 0,00 %
24.08.2015 15:16 27,6 C 43 % 1007,0 hPa 0,0 l/m 3,2 km/h (1 Bft) N 351 5 min 0,000 mm 3,0 UV-I 847 W/m 13,9 C 27,6 C 7,9 km/h (2 Bft) 0,00 %
24.08.2015 15:21 27,8 C 42 % 1006,9 hPa 0,0 l/m 3,2 km/h (1 Bft) O-NO 77 5 min 0,000 mm 2,0 UV-I 850 W/m 13,7 C 27,8 C 4,0 km/h (1 Bft) 0,00 %
24.08.2015 15:26 28,1 C 42 % 1007,0 hPa 0,0 l/m 0,4 km/h (0 Bft) NO 47 5 min 0,000 mm 1,0 UV-I 843 W/m 14,0 C 28,1 C 4,0 km/h (1 Bft) 0,00 %
24.08.2015 15:31 28,2 C 42 % 1006,9 hPa 0,0 l/m 7,2 km/h (2 Bft) O-SO 113 5 min 0,000 mm 1,0 UV-I 853 W/m 14,0 C 28,1 C 7,9 km/h (2 Bft) 0,00 %
24.08.2015 15:36 28,3 C 41 % 1006,6 hPa 0,0 l/m 10,4 km/h (2 Bft) O 83 5 min 0,000 mm 1,0 UV-I 836 W/m 13,8 C 27,8 C 15,8 km/h (3 Bft) 0,00 %
24.08.2015 15:41 28,5 C 41 % 1006,9 hPa 0,0 l/m 2,9 km/h (1 Bft) NO 54 5 min 0,000 mm 1,0 UV-I 839 W/m 13,9 C 28,5 C 4,0 km/h (1 Bft) 0,00 %
24.08.2015 15:46 28,6 C 42 % 1006,9 hPa 0,0 l/m 2,9 km/h (1 Bft) O-NO 74 5 min 0,000 mm 1,0 UV-I 833 W/m 14,4 C 28,6 C 4,0 km/h (1 Bft) 0,00 %
24.08.2015 15:51 28,7 C 41 % 1006,6 hPa 0,0 l/m 7,9 km/h (2 Bft) O-SO 123 5 min 0,000 mm 1,0 UV-I 829 W/m 14,1 C 28,5 C 15,8 km/h (3 Bft) 0,00 %
24.08.2015 15:56 28,7 C 41 % 1006,7 hPa 0,0 l/m 5,4 km/h (1 Bft) SO 138 5 min 0,000 mm 1,0 UV-I 829 W/m 14,1 C 28,7 C 7,9 km/h (2 Bft) 0,00 %
24.08.2015 16:01 28,6 C 41 % 1006,9 hPa 0,0 l/m 12,2 km/h (2 Bft) SW 222 5 min 0,000 mm 1,0 UV-I 817 W/m 14,0 C 27,9 C 15,8 km/h (3 Bft) 0,00 %
24.08.2015 16:06 28,5 C 40 % 1006,7 hPa 0,0 l/m 5,8 km/h (2 Bft) O-SO 123 5 min 0,000 mm 1,0 UV-I 818 W/m 13,6 C 28,5 C 7,9 km/h (2 Bft) 0,00 %
24.08.2015 16:11 28,5 C 39 % 1006,6 hPa 0,0 l/m 2,2 km/h (1 Bft) O-NO 74 5 min 0,000 mm 1,0 UV-I 820 W/m 13,2 C 28,5 C 4,0 km/h (1 Bft) 0,00 %
24.08.2015 16:16 28,6 C 39 % 1006,6 hPa 0,0 l/m 6,8 km/h (2 Bft) O-SO 112 5 min 0,000 mm 1,0 UV-I 818 W/m 13,3 C 28,5 C 11,9 km/h (2 Bft) 0,00 %
24.08.2015 16:21 28,6 C 40 % 1006,7 hPa 0,0 l/m 1,8 km/h (1 Bft) O-SO 112 5 min 0,000 mm 1,0 UV-I 807 W/m 13,7 C 28,6 C 4,0 km/h (1 Bft) 0,00 %
24.08.2015 16:26 28,6 C 41 % 1006,5 hPa 0,0 l/m 4,0 km/h (1 Bft) O-SO 121 5 min 0,000 mm 1,0 UV-I 796 W/m 14,0 C 28,6 C 7,9 km/h (2 Bft) 0,00 %
24.08.2015 16:31 28,6 C 41 % 1006,5 hPa 0,0 l/m 7,2 km/h (2 Bft) O 84 5 min 0,000 mm 1,0 UV-I 800 W/m 14,0 C 28,5 C 7,9 km/h (2 Bft) 0,00 %
24.08.2015 16:36 28,5 C 41 % 1006,5 hPa 0,0 l/m 4,3 km/h (1 Bft) O-SO 123 5 min 0,000 mm 1,0 UV-I 797 W/m 13,9 C 28,5 C 7,9 km/h (2 Bft) 0,00 %
24.08.2015 16:41 28,3 C 41 % 1006,5 hPa 0,0 l/m 1,8 km/h (1 Bft) O 84 5 min 0,000 mm 1,0 UV-I 782 W/m 13,8 C 28,3 C 4,0 km/h (1 Bft) 0,00 %
24.08.2015 16:46 28,1 C 42 % 1006,4 hPa 0,0 l/m 0,4 km/h (0 Bft) SO 133 5 min 0,000 mm 1,0 UV-I 738 W/m 14,0 C 28,1 C 4,0 km/h (1 Bft) 0,00 %
24.08.2015 16:51 28,3 C 40 % 1006,4 hPa 0,0 l/m 2,9 km/h (1 Bft) O-NO 61 5 min 0,000 mm 1,0 UV-I 405 W/m 13,4 C 28,3 C 4,0 km/h (1 Bft) 0,00 %
24.08.2015 16:56 28,5 C 41 % 1006,5 hPa 0,0 l/m 5,8 km/h (2 Bft) SW 225 0 min 0,000 mm 1,0 UV-I 155 W/m 13,9 C 28,5 C 7,9 km/h (2 Bft) 0,00 %
24.08.2015 17:01 28,5 C 41 % 1006,5 hPa 0,0 l/m 1,4 km/h (1 Bft) N-NW 331 0 min 0,000 mm 1,0 UV-I 158 W/m 13,9 C 28,5 C 4,0 km/h (1 Bft) 0,00 %
24.08.2015 17:06 28,3 C 41 % 1006,5 hPa 0,0 l/m 0,0 km/h (0 Bft) O-NO 73 0 min 0,000 mm 1,0 UV-I 190 W/m 13,8 C 28,3 C 0,0 km/h (0 Bft) 0,00 %
24.08.2015 17:11 28,1 C 41 % 1006,3 hPa 0,0 l/m 4,3 km/h (1 Bft) N-NO 26 0 min 0,000 mm 1,0 UV-I 192 W/m 13,6 C 28,1 C 7,9 km/h (2 Bft) 0,00 %
24.08.2015 17:16 28,0 C 41 % 1006,2 hPa 0,0 l/m 5,4 km/h (1 Bft) SO 146 5 min 0,000 mm 1,0 UV-I 732 W/m 13,5 C 28,0 C 7,9 km/h (2 Bft) 0,00 %
24.08.2015 17:21 28,2 C 38 % 1006,2 hPa 0,0 l/m 1,8 km/h (1 Bft) O-NO 72 5 min 0,000 mm 1,0 UV-I 744 W/m 12,5 C 28,2 C 4,0 km/h (1 Bft) 0,00 %
24.08.2015 17:26 28,6 C 39 % 1006,3 hPa 0,0 l/m 10,8 km/h (2 Bft) SO 127 5 min 0,000 mm 1,0 UV-I 668 W/m 13,3 C 28,1 C 15,8 km/h (3 Bft) 0,00 %
24.08.2015 17:31 28,8 C 41 % 1006,3 hPa 0,0 l/m 3,2 km/h (1 Bft) SO 136 5 min 0,000 mm 1,0 UV-I 281 W/m 14,2 C 28,8 C 4,0 km/h (1 Bft) 0,00 %
24.08.2015 17:36 28,6 C 41 % 1006,3 hPa 0,0 l/m 5,8 km/h (2 Bft) O-SO 122 5 min 0,000 mm 1,0 UV-I 545 W/m 14,0 C 28,6 C 7,9 km/h (2 Bft) 0,00 %
24.08.2015 17:41 28,3 C 41 % 1006,4 hPa 0,0 l/m 2,9 km/h (1 Bft) O 87 5 min 0,000 mm 1,0 UV-I 701 W/m 13,8 C 28,3 C 4,0 km/h (1 Bft) 0,00 %
24.08.2015 17:46 28,3 C 41 % 1006,4 hPa 0,0 l/m 0,0 km/h (0 Bft) O 88 5 min 0,000 mm 1,0 UV-I 712 W/m 13,8 C 28,3 C 0,0 km/h (0 Bft) 0,00 %
24.08.2015 17:51 28,6 C 41 % 1006,1 hPa 0,0 l/m 4,7 km/h (1 Bft) NO 44 5 min 0,000 mm 1,0 UV-I 474 W/m 14,0 C 28,6 C 11,9 km/h (2 Bft) 0,00 %
24.08.2015 17:56 28,7 C 41 % 1006,1 hPa 0,0 l/m 2,2 km/h (1 Bft) N 4 5 min 0,000 mm 1,0 UV-I 496 W/m 14,1 C 28,7 C 4,0 km/h (1 Bft) 0,00 %
24.08.2015 18:01 28,7 C 41 % 1006,1 hPa 0,0 l/m 3,2 km/h (1 Bft) O-SO 114 5 min 0,000 mm 1,0 UV-I 542 W/m 14,1 C 28,7 C 4,0 km/h (1 Bft) 0,00 %
24.08.2015 18:06 28,7 C 41 % 1006,0 hPa 0,0 l/m 5,8 km/h (2 Bft) NO 46 5 min 0,000 mm 1,0 UV-I 584 W/m 14,1 C 28,7 C 11,9 km/h (2 Bft) 0,00 %
24.08.2015 18:11 28,6 C 40 % 1006,1 hPa 0,0 l/m 5,8 km/h (2 Bft) O-NO 58 5 min 0,000 mm 1,0 UV-I 650 W/m 13,7 C 28,6 C 7,9 km/h (2 Bft) 0,00 %
24.08.2015 18:16 28,5 C 40 % 1006,2 hPa 0,0 l/m 1,8 km/h (1 Bft) O 91 5 min 0,000 mm 1,0 UV-I 650 W/m 13,6 C 28,5 C 4,0 km/h (1 Bft) 0,00 %
24.08.2015 18:21 28,7 C 37 % 1006,0 hPa 0,0 l/m 4,7 km/h (1 Bft) O-NO 75 5 min 0,000 mm 1,0 UV-I 627 W/m 12,5 C 28,7 C 7,9 km/h (2 Bft) 0,00 %
24.08.2015 18:26 28,9 C 38 % 1006,1 hPa 0,0 l/m 0,4 km/h (0 Bft) NO 43 5 min 0,000 mm 1,0 UV-I 583 W/m 13,1 C 28,9 C 4,0 km/h (1 Bft) 0,00 %
24.08.2015 18:31 28,8 C 35 % 1006,0 hPa 0,0 l/m 0,4 km/h (0 Bft) O 85 5 min 0,000 mm 1,0 UV-I 594 W/m 11,8 C 28,8 C 4,0 km/h (1 Bft) 0,00 %
24.08.2015 18:36 28,8 C 34 % 1006,0 hPa 0,0 l/m 1,8 km/h (1 Bft) SO 138 5 min 0,000 mm 1,0 UV-I 585 W/m 11,4 C 28,8 C 4,0 km/h (1 Bft) 0,00 %
24.08.2015 18:41 28,9 C 34 % 1006,0 hPa 0,0 l/m 1,4 km/h (1 Bft) O 89 5 min 0,000 mm 1,0 UV-I 562 W/m 11,4 C 28,9 C 4,0 km/h (1 Bft) 0,00 %
24.08.2015 18:46 28,9 C 34 % 1005,9 hPa 0,0 l/m 0,0 km/h (0 Bft) O 100 5 min 0,000 mm 1,0 UV-I 470 W/m 11,4 C 28,9 C 0,0 km/h (0 Bft) 0,00 %
24.08.2015 18:51 28,8 C 34 % 1005,9 hPa 0,0 l/m 3,2 km/h (1 Bft) O-SO 106 5 min 0,000 mm 0,0 UV-I 433 W/m 11,4 C 28,8 C 7,9 km/h (2 Bft) 0,00 %
24.08.2015 18:56 28,7 C 35 % 1006,0 hPa 0,0 l/m 0,4 km/h (0 Bft) O-NO 67 5 min 0,000 mm 0,0 UV-I 406 W/m 11,7 C 28,7 C 4,0 km/h (1 Bft) 0,00 %
24.08.2015 19:01 28,5 C 36 % 1005,9 hPa 0,0 l/m 0,0 km/h (0 Bft) O-NO 62 5 min 0,000 mm 0,0 UV-I 343 W/m 12,0 C 28,5 C 0,0 km/h (0 Bft) 0,00 %
24.08.2015 19:06 28,2 C 36 % 1005,9 hPa 0,0 l/m 0,4 km/h (0 Bft) NO 48 5 min 0,000 mm 0,0 UV-I 227 W/m 11,7 C 28,2 C 4,0 km/h (1 Bft) 0,00 %
24.08.2015 19:11 28,0 C 37 % 1005,9 hPa 0,0 l/m 0,0 km/h (0 Bft) NO 48 5 min 0,000 mm 0,0 UV-I 174 W/m 11,9 C 28,0 C 0,0 km/h (0 Bft) 0,00 %
24.08.2015 19:16 27,7 C 39 % 1005,9 hPa 0,0 l/m 0,0 km/h (0 Bft) N-NO 23 5 min 0,000 mm 0,0 UV-I 93 W/m 12,5 C 27,7 C 0,0 km/h (0 Bft) 0,00 %
24.08.2015 19:21 27,3 C 39 % 1006,0 hPa 0,0 l/m 0,0 km/h (0 Bft) NO 36 0 min 0,000 mm 0,0 UV-I 50 W/m 12,1 C 27,3 C 0,0 km/h (0 Bft) 0,00 %
24.08.2015 19:26 26,8 C 40 % 1005,9 hPa 0,0 l/m 0,0 km/h (0 Bft) NO 46 0 min 0,000 mm 0,0 UV-I 36 W/m 12,1 C 26,8 C 0,0 km/h (0 Bft) 0,00 %
24.08.2015 19:31 26,3 C 42 % 1006,1 hPa 0,0 l/m 0,0 km/h (0 Bft) N-NO 27 0 min 0,000 mm 0,0 UV-I 28 W/m 12,3 C 26,3 C 0,0 km/h (0 Bft) 0,00 %
24.08.2015 19:36 25,9 C 43 % 1005,9 hPa 0,0 l/m 0,0 km/h (0 Bft) NO 55 0 min 0,000 mm 0,0 UV-I 23 W/m 12,3 C 25,9 C 0,0 km/h (0 Bft) 0,00 %
24.08.2015 19:41 25,4 C 46 % 1006,1 hPa 0,0 l/m 0,0 km/h (0 Bft) O 92 0 min 0,000 mm 0,0 UV-I 18 W/m 12,9 C 25,4 C 0,0 km/h (0 Bft) 0,00 %
24.08.2015 19:46 24,9 C 45 % 1005,9 hPa 0,0 l/m 0,0 km/h (0 Bft) O-NO 69 0 min 0,000 mm 0,0 UV-I 10 W/m 12,1 C 24,9 C 0,0 km/h (0 Bft) 0,00 %
24.08.2015 19:51 24,5 C 49 % 1005,9 hPa 0,0 l/m 0,0 km/h (0 Bft) O 84 0 min 0,000 mm 0,0 UV-I 5 W/m 13,1 C 24,5 C 0,0 km/h (0 Bft) 0,00 %
24.08.2015 19:56 24,2 C 48 % 1005,9 hPa 0,0 l/m 0,0 km/h (0 Bft) O 81 0 min 0,000 mm 0,0 UV-I 0 W/m 12,5 C 24,2 C 0,0 km/h (0 Bft) 0,00 %
24.08.2015 20:01 24,0 C 48 % 1005,9 hPa 0,0 l/m 1,8 km/h (1 Bft) O-SO 115 0 min 0,000 mm 0,0 UV-I 0 W/m 12,3 C 24,0 C 4,0 km/h (1 Bft) 0,00 %
24.08.2015 20:06 23,9 C 46 % 1006,0 hPa 0,0 l/m 0,0 km/h (0 Bft) O-NO 74 0 min 0,000 mm 0,0 UV-I 0 W/m 11,6 C 23,9 C 0,0 km/h (0 Bft) 0,00 %
24.08.2015 20:12 23,9 C 49 % 1006,1 hPa 0,0 l/m 0,0 km/h (0 Bft) O-SO 111 0 min 0,000 mm 0,0 UV-I 0 W/m 12,5 C 23,9 C 0,0 km/h (0 Bft) 0,00 %
24.08.2015 20:17 23,8 C 48 % 1006,0 hPa 0,0 l/m 0,0 km/h (0 Bft) O-SO 106 0 min 0,000 mm 0,0 UV-I 0 W/m 12,1 C 23,8 C 0,0 km/h (0 Bft) 0,00 %
24.08.2015 20:22 23,6 C 50 % 1006,2 hPa 0,0 l/m 0,0 km/h (0 Bft) O 83 0 min 0,000 mm 0,0 UV-I 0 W/m 12,6 C 23,6 C 0,0 km/h (0 Bft) 0,00 %
24.08.2015 20:27 23,4 C 50 % 1006,3 hPa 0,0 l/m 1,8 km/h (1 Bft) O-SO 104 0 min 0,000 mm 0,0 UV-I 0 W/m 12,4 C 23,4 C 4,0 km/h (1 Bft) 0,00 %
24.08.2015 20:32 23,2 C 50 % 1006,3 hPa 0,0 l/m 0,0 km/h (0 Bft) O-NO 74 0 min 0,000 mm 0,0 UV-I 0 W/m 12,2 C 23,2 C 0,0 km/h (0 Bft) 0,00 %
24.08.2015 20:37 23,1 C 52 % 1006,3 hPa 0,0 l/m 0,0 km/h (0 Bft) O 79 0 min 0,000 mm 0,0 UV-I 0 W/m 12,7 C 23,1 C 0,0 km/h (0 Bft) 0,00 %
24.08.2015 20:42 22,9 C 53 % 1006,4 hPa 0,0 l/m 0,0 km/h (0 Bft) O 96 0 min 0,000 mm 0,0 UV-I 0 W/m 12,8 C 22,9 C 0,0 km/h (0 Bft) 0,00 %
24.08.2015 20:47 22,6 C 53 % 1006,5 hPa 0,0 l/m 0,0 km/h (0 Bft) NO 53 0 min 0,000 mm 0,0 UV-I 0 W/m 12,5 C 22,6 C 0,0 km/h (0 Bft) 0,00 %
24.08.2015 20:52 22,3 C 53 % 1006,5 hPa 0,0 l/m 0,0 km/h (0 Bft) O-SO 113 0 min 0,000 mm 0,0 UV-I 0 W/m 12,2 C 22,3 C 0,0 km/h (0 Bft) 0,00 %
24.08.2015 20:57 22,2 C 54 % 1006,6 hPa 0,0 l/m 0,4 km/h (0 Bft) O 84 0 min 0,000 mm 0,0 UV-I 0 W/m 12,4 C 22,2 C 4,0 km/h (1 Bft) 0,00 %
24.08.2015 21:02 22,1 C 53 % 1006,7 hPa 0,0 l/m 0,0 km/h (0 Bft) O-NO 77 0 min 0,000 mm 0,0 UV-I 0 W/m 12,1 C 22,1 C 0,0 km/h (0 Bft) 0,00 %
24.08.2015 21:07 22,0 C 53 % 1006,6 hPa 0,0 l/m 0,0 km/h (0 Bft) O 80 0 min 0,000 mm 0,0 UV-I 0 W/m 12,0 C 22,0 C 0,0 km/h (0 Bft) 0,00 %
24.08.2015 21:12 21,8 C 56 % 1006,7 hPa 0,0 l/m 0,0 km/h (0 Bft) O-NO 57 0 min 0,000 mm 0,0 UV-I 0 W/m 12,6 C 21,8 C 0,0 km/h (0 Bft) 0,00 %
24.08.2015 21:17 21,7 C 54 % 1006,7 hPa 0,0 l/m 0,0 km/h (0 Bft) NO 56 0 min 0,000 mm 0,0 UV-I 0 W/m 12,0 C 21,7 C 0,0 km/h (0 Bft) 0,00 %
24.08.2015 21:22 21,5 C 55 % 1006,9 hPa 0,0 l/m 0,0 km/h (0 Bft) NO 50 0 min 0,000 mm 0,0 UV-I 0 W/m 12,1 C 21,5 C 0,0 km/h (0 Bft) 0,00 %
24.08.2015 21:27 21,4 C 58 % 1006,8 hPa 0,0 l/m 0,0 km/h (0 Bft) NO 55 0 min 0,000 mm 0,0 UV-I 0 W/m 12,8 C 21,4 C 0,0 km/h (0 Bft) 0,00 %
24.08.2015 21:32 21,2 C 60 % 1007,0 hPa 0,0 l/m 0,0 km/h (0 Bft) NO 46 0 min 0,000 mm 0,0 UV-I 0 W/m 13,1 C 21,2 C 0,0 km/h (0 Bft) 0,00 %
24.08.2015 21:37 21,0 C 61 % 1007,0 hPa 0,0 l/m 0,0 km/h (0 Bft) NO 51 0 min 0,000 mm 0,0 UV-I 0 W/m 13,2 C 21,0 C 0,0 km/h (0 Bft) 0,00 %
24.08.2015 21:42 20,6 C 62 % 1006,9 hPa 0,0 l/m 0,0 km/h (0 Bft) NO 46 0 min 0,000 mm 0,0 UV-I 0 W/m 13,1 C 20,6 C 0,0 km/h (0 Bft) 0,00 %
24.08.2015 21:48 19,9 C 63 % 1006,9 hPa 0,0 l/m 0,0 km/h (0 Bft) NO 56 0 min 0,000 mm 0,0 UV-I 0 W/m 12,6 C 19,9 C 0,0 km/h (0 Bft) 0,00 %
24.08.2015 21:53 19,7 C 63 % 1007,2 hPa 0,0 l/m 0,0 km/h (0 Bft) O-NO 70 0 min 0,000 mm 0,0 UV-I 0 W/m 12,5 C 19,7 C 0,0 km/h (0 Bft) 0,00 %
24.08.2015 21:58 19,5 C 62 % 1007,4 hPa 0,0 l/m 0,0 km/h (0 Bft) O-NO 58 0 min 0,000 mm 0,0 UV-I 0 W/m 12,0 C 19,5 C 0,0 km/h (0 Bft) 0,00 %
24.08.2015 22:03 19,4 C 62 % 1007,2 hPa 0,0 l/m 0,0 km/h (0 Bft) NO 42 0 min 0,000 mm 0,0 UV-I 0 W/m 11,9 C 19,4 C 0,0 km/h (0 Bft) 0,00 %
24.08.2015 22:08 19,3 C 63 % 1007,4 hPa 0,0 l/m 0,0 km/h (0 Bft) NO 38 0 min 0,000 mm 0,0 UV-I 0 W/m 12,1 C 19,3 C 0,0 km/h (0 Bft) 0,00 %
24.08.2015 22:13 19,3 C 64 % 1007,3 hPa 0,0 l/m 0,0 km/h (0 Bft) NO 42 0 min 0,000 mm 0,0 UV-I 0 W/m 12,3 C 19,3 C 0,0 km/h (0 Bft) 0,00 %
24.08.2015 22:18 19,2 C 66 % 1007,4 hPa 0,0 l/m 0,0 km/h (0 Bft) NO 52 0 min 0,000 mm 0,0 UV-I 0 W/m 12,7 C 19,2 C 0,0 km/h (0 Bft) 0,00 %
24.08.2015 22:23 19,0 C 67 % 1007,5 hPa 0,0 l/m 0,0 km/h (0 Bft) N-NO 18 0 min 0,000 mm 0,0 UV-I 0 W/m 12,7 C 19,0 C 0,0 km/h (0 Bft) 0,00 %
24.08.2015 22:28 18,8 C 68 % 1007,5 hPa 0,0 l/m 0,0 km/h (0 Bft) NO 45 0 min 0,000 mm 0,0 UV-I 0 W/m 12,8 C 18,8 C 0,0 km/h (0 Bft) 0,00 %
24.08.2015 22:33 18,6 C 68 % 1007,6 hPa 0,0 l/m 0,0 km/h (0 Bft) O-NO 60 0 min 0,000 mm 0,0 UV-I 0 W/m 12,6 C 18,6 C 0,0 km/h (0 Bft) 0,00 %
24.08.2015 22:38 18,5 C 69 % 1007,6 hPa 0,0 l/m 0,0 km/h (0 Bft) O-NO 60 0 min 0,000 mm 0,0 UV-I 0 W/m 12,7 C 18,5 C 0,0 km/h (0 Bft) 0,00 %
24.08.2015 22:43 18,5 C 70 % 1007,7 hPa 0,0 l/m 0,0 km/h (0 Bft) O-NO 60 0 min 0,000 mm 0,0 UV-I 0 W/m 12,9 C 18,5 C 0,0 km/h (0 Bft) 0,00 %
24.08.2015 22:48 18,4 C 70 % 1007,8 hPa 0,0 l/m 0,0 km/h (0 Bft) NO 56 0 min 0,000 mm 0,0 UV-I 0 W/m 12,8 C 18,4 C 0,0 km/h (0 Bft) 0,00 %
24.08.2015 22:53 18,2 C 70 % 1008,0 hPa 0,0 l/m 0,0 km/h (0 Bft) O-NO 64 0 min 0,000 mm 0,0 UV-I 0 W/m 12,6 C 18,2 C 0,0 km/h (0 Bft) 0,00 %
24.08.2015 22:58 18,0 C 71 % 1008,0 hPa 0,0 l/m 0,0 km/h (0 Bft) NO 56 0 min 0,000 mm 0,0 UV-I 0 W/m 12,7 C 18,0 C 0,0 km/h (0 Bft) 0,00 %
24.08.2015 23:03 18,0 C 70 % 1008,0 hPa 0,0 l/m 0,0 km/h (0 Bft) NO 56 0 min 0,000 mm 0,0 UV-I 0 W/m 12,4 C 18,0 C 0,0 km/h (0 Bft) 0,00 %
24.08.2015 23:08 17,9 C 71 % 1008,2 hPa 0,0 l/m 0,0 km/h (0 Bft) NO 44 0 min 0,000 mm 0,0 UV-I 0 W/m 12,6 C 17,9 C 0,0 km/h (0 Bft) 0,00 %
24.08.2015 23:13 17,8 C 73 % 1008,6 hPa 0,0 l/m 1,4 km/h (1 Bft) W-NW 283 0 min 0,000 mm 0,0 UV-I 0 W/m 12,9 C 17,8 C 4,0 km/h (1 Bft) 0,00 %
24.08.2015 23:18 17,7 C 73 % 1009,2 hPa 0,0 l/m 0,0 km/h (0 Bft) O-NO 59 0 min 0,000 mm 0,0 UV-I 0 W/m 12,8 C 17,7 C 0,0 km/h (0 Bft) 0,00 %
24.08.2015 23:23 17,8 C 64 % 1009,5 hPa 0,0 l/m 5,8 km/h (2 Bft) S 189 0 min 0,000 mm 0,0 UV-I 0 W/m 10,9 C 17,8 C 7,9 km/h (2 Bft) 0,00 %
24.08.2015 23:28 18,8 C 61 % 1009,9 hPa 0,0 l/m 16,9 km/h (3 Bft) W-NW 282 0 min 0,000 mm 0,0 UV-I 0 W/m 11,1 C 15,3 C 28,1 km/h (4 Bft) 0,00 %
24.08.2015 23:33 20,0 C 66 % 1010,2 hPa 0,0 l/m 11,9 km/h (2 Bft) N 357 0 min 0,000 mm 0,0 UV-I 0 W/m 13,4 C 18,1 C 15,8 km/h (3 Bft) 0,00 %
24.08.2015 23:38 20,6 C 67 % 1010,4 hPa 0,0 l/m 6,8 km/h (2 Bft) W 279 0 min 0,000 mm 0,0 UV-I 0 W/m 14,3 C 20,4 C 7,9 km/h (2 Bft) 0,00 %
24.08.2015 23:43 20,7 C 69 % 1010,6 hPa 0,0 l/m 8,3 km/h (2 Bft) S 182 0 min 0,000 mm 0,0 UV-I 0 W/m 14,8 C 20,0 C 15,8 km/h (3 Bft) 0,00 %
24.08.2015 23:48 20,6 C 69 % 1010,6 hPa 0,0 l/m 9,0 km/h (2 Bft) S 185 0 min 0,000 mm 0,0 UV-I 0 W/m 14,7 C 19,6 C 11,9 km/h (2 Bft) 0,00 %
24.08.2015 23:53 20,5 C 69 % 1011,0 hPa 0,0 l/m 4,7 km/h (1 Bft) NO 47 0 min 0,000 mm 0,0 UV-I 0 W/m 14,6 C 20,5 C 7,9 km/h (2 Bft) 0,00 %
24.08.2015 23:58 20,4 C 69 % 1011,0 hPa 0,0 l/m 4,0 km/h (1 Bft) SW 223 0 min 0,000 mm 0,0 UV-I 0 W/m 14,5 C 20,4 C 7,9 km/h (2 Bft) 0,00 %
_ Min-Zeit 05:56 18:36 18:46 - 00:00 - - - - - - 05:56 05:56 00:00 00:00
Minimum _ 10,4 C 34 % 1005,9 hPa - 0,0 km/h (0 Bft) - - - - - - 9,8 C 10,4 C 0,0 km/h (0 Bft) 0,00 %
_ Max-Zeit 18:26 06:11 23:53 00:00 23:28 - - 06:21 00:00 11:51 11:56 23:43 18:26 23:28 00:00
Maximum _ 28,9 C 97 % 1011,0 hPa 0,0 l/m 16,9 km/h
W-NW (3 Bft)
- - 5 min 0,000 mm 4,0 UV-I 1041 W/m 14,8 C 28,9 C 28,1 km/h
W-NW (4 Bft)
0,00 %
Durchschnitt _ 20,2 C 63 % 1008,0 hPa #0,0 l/m 2,2 km/h (1 Bft) O-SO - #9:20 h #0,000 mm 1,9 UV-I 463 W/m 12,0 C 20,1 C 3,7 km/h (1 Bft) 0,00 %